QPF
0.05 0.04 0.04 0.04 0.02 0.02 0.03 0.03 0.03 0.03 0.03 0.02 0.01 0.01 0.01 0.01 0.02 0.01 0.01 0.01 0.02 0.03 0.05 0.06 0.06 0.05 0.04 0.03 0.02 0.02 0.01 0.00 0.00 0.01 0.01 0.01 0.01 0.01 0.01 0.01 0.01 0.01 0.01
0.06 0.06 0.04 0.03 0.02 0.02 0.02 0.04 0.04 0.03 0.03 0.02 0.01 0.01 0.01 0.01 0.01 0.01 0.00 0.00 0.01 0.02 0.03 0.05 0.06 0.07 0.06 0.05 0.03 0.02 0.01 0.01 0.01 0.01 0.01 0.01 0.01 0.01 0.01 0.01 0.01 0.01 0.01
0.07 0.07 0.06 0.03 0.01 0.01 0.01 0.03 0.05 0.05 0.04 0.03 0.02 0.01 0.02 0.01 0.01 0.02 0.01 0.01 0.00 0.01 0.02 0.05 0.05 0.05 0.06 0.07 0.04 0.02 0.02 0.01 0.01 0.01 0.01 0.01 0.01 0.01 0.01 0.01 0.01 0.01 0.01
0.07 0.08 0.07 0.04 0.02 0.01 0.02 0.03 0.04 0.05 0.05 0.04 0.02 0.02 0.02 0.01 0.01 0.02 0.02 0.02 0.01 0.01 0.01 0.03 0.06 0.07 0.05 0.05 0.04 0.03 0.01 0.01 0.01 0.01 0.01 0.01 0.01 0.01 0.01 0.01 0.01 0.01 0.01
0.08 0.07 0.08 0.06 0.03 0.02 0.01 0.01 0.03 0.04 0.05 0.05 0.03 0.02 0.02 0.02 0.02 0.01 0.02 0.02 0.01 0.01 0.01 0.02 0.07 0.08 0.06 0.05 0.05 0.05 0.03 0.01 0.01 0.01 0.01 0.01 0.01 0.01 0.00 0.01 0.01 0.01 0.01
0.08 0.09 0.08 0.09 0.07 0.05 0.04 0.02 0.02 0.04 0.05 0.05 0.04 0.03 0.03 0.02 0.02 0.01 0.01 0.01 0.01 0.01 0.02 0.02 0.06 0.08 0.07 0.06 0.05 0.05 0.04 0.01 0.01 0.01 0.01 0.01 0.01 0.01 0.01 0.01 0.01 0.01 0.00
0.09 0.10 0.09 0.11 0.09 0.06 0.05 0.03 0.02 0.04 0.05 0.04 0.05 0.06 0.06 0.04 0.02 0.01 0.01 0.01 0.01 0.01 0.01 0.01 0.03 0.06 0.06 0.07 0.06 0.05 0.04 0.01 0.01 0.00 0.01 0.01 0.01 0.01 0.01 0.00 0.01 0.01 0.00
0.13 0.11 0.10 0.12 0.12 0.06 0.03 0.02 0.03 0.04 0.06 0.05 0.04 0.04 0.05 0.05 0.04 0.02 0.01 0.01 0.01 0.01 0.01 0.01 0.02 0.03 0.04 0.05 0.05 0.05 0.03 0.01 0.01 0.01 0.01 0.01 0.01 0.01 0.01 0.01 0.01 0.01 0.01
0.14 0.11 0.10 0.11 0.14 0.11 0.05 0.03 0.03 0.04 0.05 0.06 0.05 0.03 0.03 0.04 0.03 0.02 0.02 0.02 0.02 0.01 0.01 0.01 0.02 0.02 0.02 0.03 0.03 0.03 0.03 0.02 0.01 0.01 0.01 0.01 0.01 0.01 0.01 0.01 0.01 0.01 0.01
0.14 0.11 0.09 0.10 0.11 0.12 0.09 0.04 0.02 0.03 0.05 0.06 0.06 0.04 0.02 0.02 0.02 0.02 0.01 0.02 0.02 0.03 0.02 0.02 0.02 0.02 0.02 0.02 0.02 0.02 0.02 0.01 0.01 0.02 0.02 0.01 0.01 0.01 0.01 0.01 0.01 0.01 0.01
0.12 0.12 0.10 0.09 0.10 0.10 0.10 0.07 0.04 0.03 0.04 0.05 0.06 0.06 0.04 0.02 0.01 0.02 0.02 0.02 0.02 0.02 0.02 0.02 0.03 0.03 0.03 0.03 0.02 0.02 0.01 0.01 0.01 0.02 0.02 0.02 0.02 0.01 0.01 0.01 0.01 0.01 0.01
0.08 0.10 0.10 0.10 0.10 0.10 0.10 0.10 0.06 0.04 0.03 0.04 0.05 0.06 0.05 0.03 0.02 0.02 0.02 0.02 0.03 0.03 0.02 0.02 0.03 0.03 0.04 0.04 0.03 0.03 0.02 0.02 0.02 0.02 0.03 0.02 0.02 0.01 0.01 0.01 0.01 0.01 0.01
0.06 0.07 0.08 0.09 0.08 0.08 0.10 0.10 0.09 0.06 0.04 0.04 0.04 0.06 0.06 0.04 0.03 0.02 0.02 0.02 0.03 0.03 0.03 0.03 0.03 0.03 0.04 0.05 0.04 0.04 0.04 0.04 0.04 0.03 0.03 0.02 0.02 0.01 0.01 0.01 0.01 0.01 0.01
0.04 0.06 0.07 0.08 0.08 0.08 0.07 0.09 0.10 0.09 0.06 0.05 0.05 0.05 0.07 0.05 0.04 0.03 0.02 0.02 0.02 0.02 0.02 0.02 0.02 0.03 0.04 0.05 0.05 0.05 0.05 0.05 0.04 0.03 0.02 0.02 0.01 0.01 0.01 0.01 0.01 0.01 0.01
0.03 0.03 0.04 0.07 0.08 0.09 0.09 0.08 0.09 0.10 0.08 0.06 0.06 0.06 0.06 0.06 0.05 0.04 0.02 0.02 0.02 0.02 0.02 0.02 0.02 0.02 0.03 0.05 0.06 0.06 0.05 0.05 0.03 0.02 0.02 0.01 0.01 0.01 0.01 0.01 0.01 0.01 0.01
0.03 0.03 0.03 0.04 0.07 0.09 0.09 0.09 0.09 0.09 0.09 0.08 0.07 0.07 0.07 0.05 0.05 0.05 0.04 0.03 0.02 0.02 0.02 0.01 0.02 0.02 0.03 0.04 0.05 0.04 0.04 0.05 0.04 0.02 0.02 0.01 0.01 0.01 0.01 0.00 0.01 0.01 0.01
0.03 0.03 0.03 0.03 0.04 0.07 0.09 0.09 0.10 0.10 0.09 0.08 0.08 0.08 0.08 0.07 0.05 0.05 0.05 0.05 0.04 0.03 0.02 0.02 0.02 0.02 0.03 0.03 0.03 0.03 0.03 0.03 0.03 0.03 0.02 0.01 0.01 0.01 0.01 0.01 0.01 0.01 0.01
0.03 0.02 0.02 0.02 0.03 0.04 0.07 0.08 0.08 0.08 0.09 0.09 0.08 0.08 0.09 0.09 0.07 0.05 0.05 0.05 0.04 0.03 0.03 0.03 0.03 0.03 0.02 0.02 0.03 0.03 0.02 0.02 0.02 0.02 0.03 0.02 0.01 0.01 0.01 0.01 0.01 0.01 0.01
0.04 0.03 0.02 0.01 0.01 0.02 0.04 0.06 0.07 0.06 0.06 0.07 0.06 0.06 0.07 0.08 0.09 0.08 0.06 0.06 0.04 0.03 0.03 0.03 0.03 0.03 0.03 0.03 0.03 0.03 0.02 0.02 0.02 0.03 0.02 0.02 0.02 0.01 0.01 0.01 0.01 0.01 0.01
0.04 0.03 0.03 0.02 0.01 0.01 0.01 0.02 0.04 0.05 0.05 0.05 0.04 0.04 0.04 0.05 0.06 0.06 0.06 0.05 0.05 0.04 0.04 0.03 0.03 0.02 0.03 0.03 0.03 0.03 0.03 0.02 0.02 0.02 0.02 0.02 0.02 0.02 0.02 0.01 0.01 0.01 0.01
0.04 0.04 0.03 0.02 0.01 0.01 0.01 0.01 0.02 0.02 0.03 0.03 0.03 0.02 0.02 0.02 0.03 0.04 0.05 0.04 0.04 0.04 0.03 0.03 0.03 0.02 0.02 0.02 0.03 0.02 0.02 0.02 0.02 0.02 0.03 0.02 0.02 0.02 0.02 0.02 0.02 0.02 0.01
0.03 0.04 0.03 0.02 0.02 0.01 0.02 0.02 0.02 0.02 0.02 0.02 0.02 0.02 0.02 0.02 0.02 0.02 0.03 0.03 0.04 0.04 0.04 0.03 0.03 0.02 0.01 0.01 0.02 0.02 0.02 0.02 0.02 0.02 0.02 0.02 0.02 0.03 0.02 0.02 0.02 0.02 0.02
0.04 0.04 0.03 0.03 0.02 0.02 0.02 0.02 0.02 0.02 0.02 0.02 0.02 0.02 0.01 0.01 0.02 0.01 0.02 0.02 0.02 0.03 0.03 0.03 0.03 0.02 0.02 0.01 0.02 0.02 0.02 0.02 0.02 0.02 0.02 0.02 0.02 0.02 0.02 0.02 0.02 0.02 0.02
0.05 0.04 0.03 0.02 0.02 0.02 0.02 0.02 0.02 0.03 0.03 0.03 0.02 0.02 0.02 0.02 0.02 0.02 0.02 0.02 0.02 0.02 0.02 0.02 0.02 0.02 0.01 0.02 0.02 0.03 0.03 0.03 0.03 0.02 0.02 0.02 0.02 0.02 0.02 0.02 0.02 0.02 0.02
0.06 0.05 0.03 0.03 0.02 0.02 0.02 0.03 0.03 0.04 0.04 0.04 0.04 0.03 0.02 0.02 0.02 0.03 0.03 0.03 0.02 0.02 0.02 0.02 0.02 0.02 0.01 0.01 0.02 0.02 0.03 0.03 0.03 0.02 0.02 0.02 0.02 0.02 0.02 0.02 0.01 0.02 0.01
0.05 0.06 0.05 0.04 0.03 0.03 0.03 0.03 0.04 0.05 0.05 0.05 0.05 0.04 0.04 0.03 0.02 0.03 0.02 0.02 0.03 0.03 0.02 0.02 0.02 0.02 0.02 0.02 0.02 0.02 0.02 0.02 0.02 0.01 0.01 0.01 0.01 0.01 0.02 0.02 0.01 0.01 0.01
MSLP
1017.57 1018.09 1018.61 1019.13 1019.65 1020.14 1020.58 1020.95 1021.23 1021.44 1021.59 1021.73 1021.89 1022.12 1022.42 1022.80 1023.24 1023.71 1024.15 1024.52 1024.79 1024.96 1025.03 1025.02 1024.98 1024.94 1024.91 1024.92 1024.96 1025.02 1025.08 1025.12 1025.14 1025.15 1025.16 1025.18 1025.24 1025.32 1025.44 1025.58 1025.71 1025.82 1025.88
1017.56 1018.05 1018.55 1019.06 1019.59 1020.11 1020.60 1021.03 1021.38 1021.65 1021.85 1022.01 1022.18 1022.40 1022.68 1023.03 1023.45 1023.90 1024.33 1024.70 1024.99 1025.18 1025.27 1025.28 1025.25 1025.21 1025.18 1025.18 1025.20 1025.23 1025.26 1025.27 1025.25 1025.23 1025.21 1025.21 1025.25 1025.34 1025.47 1025.63 1025.81 1025.97 1026.10
1017.54 1018.01 1018.49 1019.00 1019.55 1020.11 1020.67 1021.18 1021.62 1021.97 1022.23 1022.44 1022.63 1022.83 1023.09 1023.40 1023.77 1024.18 1024.57 1024.93 1025.21 1025.40 1025.50 1025.53 1025.52 1025.49 1025.46 1025.45 1025.46 1025.46 1025.46 1025.43 1025.38 1025.31 1025.25 1025.22 1025.24 1025.32 1025.45 1025.64 1025.86 1026.07 1026.27
1017.50 1017.96 1018.44 1018.96 1019.53 1020.15 1020.77 1021.37 1021.90 1022.34 1022.69 1022.96 1023.17 1023.38 1023.61 1023.88 1024.20 1024.54 1024.89 1025.20 1025.46 1025.64 1025.75 1025.79 1025.80 1025.78 1025.77 1025.76 1025.76 1025.74 1025.71 1025.65 1025.55 1025.44 1025.34 1025.26 1025.24 1025.30 1025.43 1025.63 1025.87 1026.14 1026.40
1017.42 1017.90 1018.39 1018.92 1019.52 1020.17 1020.85 1021.53 1022.16 1022.69 1023.13 1023.46 1023.73 1023.95 1024.18 1024.41 1024.68 1024.97 1025.26 1025.53 1025.75 1025.92 1026.03 1026.08 1026.10 1026.11 1026.11 1026.12 1026.11 1026.09 1026.04 1025.94 1025.80 1025.64 1025.48 1025.35 1025.28 1025.30 1025.40 1025.59 1025.85 1026.15 1026.46
1017.30 1017.81 1018.32 1018.86 1019.47 1020.15 1020.87 1021.61 1022.31 1022.93 1023.45 1023.86 1024.19 1024.45 1024.68 1024.91 1025.15 1025.40 1025.65 1025.88 1026.07 1026.22 1026.33 1026.39 1026.43 1026.46 1026.49 1026.51 1026.52 1026.49 1026.43 1026.30 1026.12 1025.91 1025.69 1025.49 1025.36 1025.32 1025.38 1025.54 1025.79 1026.11 1026.44
1017.12 1017.67 1018.20 1018.75 1019.36 1020.05 1020.79 1021.55 1022.30 1022.98 1023.58 1024.07 1024.46 1024.78 1025.05 1025.30 1025.53 1025.77 1025.99 1026.20 1026.38 1026.52 1026.62 1026.70 1026.77 1026.82 1026.88 1026.92 1026.94 1026.93 1026.85 1026.71 1026.49 1026.23 1025.94 1025.67 1025.47 1025.35 1025.35 1025.47 1025.70 1026.00 1026.36
1016.87 1017.48 1018.03 1018.59 1019.19 1019.86 1020.58 1021.35 1022.11 1022.84 1023.49 1024.05 1024.51 1024.90 1025.22 1025.51 1025.77 1026.02 1026.24 1026.45 1026.63 1026.77 1026.89 1026.99 1027.07 1027.16 1027.24 1027.31 1027.35 1027.35 1027.27 1027.11 1026.86 1026.55 1026.20 1025.86 1025.58 1025.39 1025.32 1025.38 1025.57 1025.86 1026.21
1016.55 1017.22 1017.81 1018.37 1018.95 1019.59 1020.28 1021.02 1021.78 1022.52 1023.20 1023.81 1024.34 1024.79 1025.18 1025.52 1025.83 1026.11 1026.36 1026.59 1026.79 1026.95 1027.09 1027.21 1027.33 1027.44 1027.55 1027.64 1027.71 1027.71 1027.63 1027.46 1027.19 1026.84 1026.44 1026.03 1025.67 1025.41 1025.27 1025.27 1025.42 1025.68 1026.03
1016.16 1016.89 1017.52 1018.09 1018.66 1019.27 1019.92 1020.63 1021.36 1022.08 1022.78 1023.42 1023.99 1024.49 1024.94 1025.34 1025.71 1026.04 1026.34 1026.61 1026.84 1027.04 1027.21 1027.36 1027.50 1027.64 1027.77 1027.89 1027.96 1027.98 1027.90 1027.72 1027.43 1027.04 1026.60 1026.14 1025.72 1025.40 1025.20 1025.15 1025.26 1025.51 1025.86
1015.70 1016.50 1017.17 1017.76 1018.34 1018.93 1019.55 1020.22 1020.92 1021.63 1022.31 1022.95 1023.55 1024.09 1024.58 1025.03 1025.44 1025.83 1026.18 1026.50 1026.78 1027.03 1027.24 1027.43 1027.60 1027.76 1027.91 1028.03 1028.11 1028.13 1028.05 1027.86 1027.56 1027.15 1026.68 1026.19 1025.73 1025.36 1025.12 1025.03 1025.12 1025.35 1025.71
1015.19 1016.04 1016.76 1017.40 1018.00 1018.59 1019.22 1019.87 1020.54 1021.22 1021.88 1022.51 1023.10 1023.64 1024.15 1024.63 1025.09 1025.52 1025.92 1026.30 1026.63 1026.93 1027.19 1027.42 1027.62 1027.80 1027.96 1028.09 1028.17 1028.18 1028.09 1027.90 1027.58 1027.17 1026.68 1026.18 1025.70 1025.30 1025.04 1024.94 1025.01 1025.25 1025.62
1014.64 1015.53 1016.31 1017.00 1017.65 1018.29 1018.93 1019.58 1020.24 1020.90 1021.53 1022.13 1022.69 1023.22 1023.73 1024.21 1024.69 1025.15 1025.60 1026.03 1026.42 1026.78 1027.09 1027.36 1027.60 1027.80 1027.96 1028.09 1028.16 1028.16 1028.06 1027.86 1027.54 1027.12 1026.64 1026.13 1025.66 1025.26 1024.99 1024.89 1024.96 1025.20 1025.58
1014.11 1015.02 1015.84 1016.60 1017.32 1018.01 1018.70 1019.38 1020.05 1020.68 1021.29 1021.85 1022.37 1022.87 1023.34 1023.81 1024.29 1024.77 1025.25 1025.73 1026.17 1026.59 1026.96 1027.28 1027.55 1027.77 1027.94 1028.06 1028.12 1028.11 1028.00 1027.79 1027.47 1027.07 1026.60 1026.11 1025.65 1025.27 1025.01 1024.92 1025.00 1025.24 1025.63
1013.66 1014.55 1015.40 1016.22 1017.00 1017.77 1018.52 1019.24 1019.92 1020.56 1021.14 1021.66 1022.14 1022.58 1023.01 1023.45 1023.91 1024.40 1024.91 1025.42 1025.92 1026.39 1026.82 1027.19 1027.49 1027.74 1027.92 1028.04 1028.09 1028.07 1027.95 1027.74 1027.44 1027.06 1026.62 1026.16 1025.74 1025.38 1025.15 1025.06 1025.14 1025.39 1025.77
1013.35 1014.19 1015.04 1015.88 1016.72 1017.55 1018.36 1019.13 1019.84 1020.48 1021.04 1021.53 1021.96 1022.35 1022.73 1023.14 1023.57 1024.06 1024.58 1025.12 1025.67 1026.19 1026.67 1027.09 1027.44 1027.72 1027.92 1028.04 1028.10 1028.07 1027.96 1027.77 1027.49 1027.14 1026.75 1026.34 1025.95 1025.64 1025.43 1025.35 1025.43 1025.67 1026.03
1013.24 1013.99 1014.80 1015.64 1016.50 1017.37 1018.22 1019.02 1019.76 1020.41 1020.96 1021.42 1021.81 1022.16 1022.50 1022.87 1023.28 1023.75 1024.28 1024.85 1025.43 1026.00 1026.52 1026.99 1027.38 1027.69 1027.91 1028.06 1028.13 1028.12 1028.04 1027.88 1027.64 1027.35 1027.02 1026.67 1026.34 1026.06 1025.88 1025.81 1025.88 1026.09 1026.42
1013.38 1014.00 1014.71 1015.50 1016.34 1017.21 1018.08 1018.90 1019.65 1020.30 1020.84 1021.29 1021.66 1021.98 1022.29 1022.63 1023.03 1023.49 1024.02 1024.60 1025.20 1025.80 1026.36 1026.86 1027.29 1027.63 1027.89 1028.06 1028.16 1028.20 1028.16 1028.05 1027.89 1027.67 1027.41 1027.13 1026.86 1026.64 1026.48 1026.42 1026.48 1026.65 1026.93
1013.76 1014.21 1014.79 1015.48 1016.26 1017.09 1017.93 1018.74 1019.48 1020.13 1020.68 1021.12 1021.49 1021.80 1022.10 1022.43 1022.82 1023.27 1023.79 1024.37 1024.98 1025.59 1026.16 1026.69 1027.14 1027.51 1027.80 1028.02 1028.17 1028.26 1028.29 1028.26 1028.18 1028.05 1027.88 1027.69 1027.49 1027.32 1027.20 1027.14 1027.18 1027.31 1027.53
1014.35 1014.61 1015.02 1015.58 1016.24 1016.99 1017.77 1018.54 1019.26 1019.91 1020.46 1020.91 1021.29 1021.62 1021.93 1022.27 1022.65 1023.10 1023.61 1024.17 1024.76 1025.35 1025.93 1026.45 1026.92 1027.31 1027.64 1027.90 1028.11 1028.26 1028.37 1028.43 1028.45 1028.42 1028.36 1028.26 1028.15 1028.04 1027.95 1027.91 1027.93 1028.02 1028.18
1015.09 1015.14 1015.37 1015.76 1016.29 1016.92 1017.61 1018.31 1019.00 1019.63 1020.18 1020.65 1021.06 1021.43 1021.77 1022.13 1022.52 1022.96 1023.45 1023.99 1024.55 1025.11 1025.66 1026.16 1026.62 1027.02 1027.37 1027.68 1027.94 1028.17 1028.36 1028.52 1028.64 1028.72 1028.77 1028.77 1028.74 1028.70 1028.66 1028.63 1028.64 1028.70 1028.81
1015.90 1015.76 1015.81 1016.02 1016.39 1016.87 1017.45 1018.07 1018.70 1019.30 1019.86 1020.36 1020.81 1021.23 1021.62 1022.01 1022.42 1022.86 1023.33 1023.83 1024.35 1024.86 1025.36 1025.84 1026.27 1026.67 1027.03 1027.36 1027.67 1027.96 1028.23 1028.48 1028.70 1028.89 1029.03 1029.13 1029.19 1029.22 1029.22 1029.22 1029.24 1029.28 1029.35
1016.73 1016.42 1016.29 1016.33 1016.53 1016.86 1017.31 1017.83 1018.39 1018.96 1019.52 1020.05 1020.55 1021.01 1021.45 1021.89 1022.32 1022.77 1023.23 1023.70 1024.16 1024.63 1025.07 1025.50 1025.90 1026.27 1026.63 1026.98 1027.33 1027.67 1028.00 1028.32 1028.62 1028.89 1029.12 1029.31 1029.45 1029.54 1029.60 1029.63 1029.66 1029.69 1029.75
1017.55 1017.10 1016.82 1016.69 1016.73 1016.91 1017.21 1017.62 1018.10 1018.62 1019.17 1019.71 1020.25 1020.76 1021.26 1021.74 1022.21 1022.67 1023.12 1023.56 1023.99 1024.41 1024.80 1025.18 1025.54 1025.90 1026.25 1026.60 1026.95 1027.32 1027.69 1028.06 1028.41 1028.74 1029.04 1029.29 1029.49 1029.64 1029.75 1029.82 1029.87 1029.92 1029.96
1018.36 1017.81 1017.39 1017.12 1017.01 1017.03 1017.19 1017.48 1017.86 1018.31 1018.82 1019.36 1019.91 1020.46 1021.01 1021.53 1022.03 1022.52 1022.97 1023.41 1023.82 1024.20 1024.57 1024.91 1025.25 1025.58 1025.91 1026.26 1026.61 1026.98 1027.36 1027.75 1028.13 1028.49 1028.82 1029.11 1029.36 1029.56 1029.71 1029.82 1029.90 1029.96 1030.02
1019.19 1018.56 1018.04 1017.64 1017.38 1017.26 1017.28 1017.42 1017.68 1018.04 1018.49 1018.99 1019.54 1020.10 1020.67 1021.22 1021.76 1022.27 1022.75 1023.20 1023.61 1024.00 1024.36 1024.70 1025.03 1025.35 1025.68 1026.01 1026.35 1026.71 1027.08 1027.45 1027.83 1028.19 1028.53 1028.84 1029.11 1029.34 1029.53 1029.68 1029.79 1029.88 1029.95
Thickness
5651 5652 5653 5655 5656 5658 5659 5660 5661 5662 5664 5665 5665 5665 5665 5665 5664 5663 5662 5661 5662 5662 5662 5661 5660 5659 5658 5657 5655 5654 5653 5652 5650 5649 5648 5647 5646 5645 5643 5642 5641 5640 5639
5643 5645 5646 5648 5650 5652 5653 5654 5656 5657 5658 5659 5660 5660 5660 5660 5659 5658 5657 5656 5656 5656 5656 5656 5655 5654 5653 5652 5651 5649 5648 5647 5646 5645 5643 5642 5641 5640 5639 5637 5636 5635 5634
5635 5637 5639 5640 5643 5645 5647 5648 5649 5651 5651 5653 5654 5654 5654 5654 5654 5653 5652 5651 5651 5650 5650 5650 5650 5649 5648 5647 5646 5644 5643 5642 5641 5640 5639 5637 5636 5635 5634 5633 5631 5630 5629
5626 5629 5630 5632 5635 5637 5639 5641 5643 5643 5644 5646 5647 5647 5648 5648 5648 5648 5647 5646 5645 5644 5644 5644 5644 5643 5642 5642 5641 5639 5638 5637 5636 5634 5633 5632 5631 5630 5629 5627 5626 5625 5624
5617 5620 5622 5624 5627 5629 5632 5634 5635 5636 5637 5638 5639 5640 5641 5642 5642 5642 5641 5641 5640 5639 5639 5638 5638 5637 5637 5636 5635 5634 5633 5632 5630 5629 5628 5627 5626 5625 5624 5622 5621 5620 5619
5607 5610 5613 5616 5619 5621 5623 5625 5627 5629 5629 5631 5632 5632 5633 5635 5635 5636 5636 5635 5635 5634 5633 5633 5632 5631 5631 5630 5629 5629 5627 5626 5625 5624 5622 5621 5620 5619 5618 5617 5616 5615 5614
5598 5601 5604 5607 5610 5612 5615 5617 5619 5620 5621 5623 5623 5622 5624 5626 5627 5628 5629 5629 5628 5628 5628 5627 5627 5626 5625 5624 5623 5623 5622 5621 5619 5618 5617 5616 5615 5614 5613 5612 5611 5610 5609
5587 5591 5595 5598 5601 5603 5605 5608 5610 5611 5613 5615 5616 5615 5614 5614 5618 5620 5621 5622 5622 5622 5622 5621 5621 5620 5620 5618 5617 5617 5615 5615 5614 5612 5612 5611 5609 5608 5607 5606 5605 5604 5602
5577 5581 5584 5588 5591 5594 5596 5598 5601 5603 5604 5607 5610 5612 5610 5609 5608 5610 5613 5614 5614 5615 5615 5615 5614 5614 5614 5613 5612 5610 5609 5608 5608 5607 5606 5605 5604 5603 5601 5600 5599 5598 5596
5566 5570 5574 5578 5581 5584 5586 5589 5592 5595 5597 5598 5602 5606 5609 5609 5604 5601 5603 5605 5607 5607 5608 5608 5608 5608 5607 5607 5606 5605 5604 5603 5602 5601 5600 5599 5598 5597 5596 5594 5593 5591 5590
5554 5560 5563 5567 5571 5574 5577 5580 5582 5585 5589 5592 5594 5596 5599 5601 5602 5598 5596 5596 5597 5599 5600 5601 5601 5600 5600 5600 5599 5599 5598 5597 5596 5595 5594 5593 5592 5591 5589 5588 5586 5585 5583
5543 5549 5553 5556 5560 5564 5567 5570 5573 5576 5580 5583 5586 5588 5591 5592 5594 5594 5591 5589 5589 5590 5592 5593 5593 5593 5593 5593 5593 5592 5591 5590 5589 5588 5587 5586 5585 5584 5582 5581 5579 5577 5576
5530 5536 5541 5546 5550 5553 5556 5560 5563 5566 5570 5574 5577 5580 5583 5585 5587 5588 5586 5583 5582 5581 5583 5584 5585 5585 5586 5585 5585 5585 5584 5584 5583 5581 5580 5579 5578 5576 5575 5574 5572 5570 5568
5518 5523 5530 5535 5539 5543 5547 5550 5553 5556 5561 5564 5568 5571 5573 5576 5578 5579 5579 5576 5573 5573 5574 5575 5576 5577 5578 5577 5577 5577 5577 5576 5575 5574 5573 5572 5570 5569 5567 5566 5564 5562 5560
5507 5512 5518 5523 5527 5532 5536 5540 5543 5547 5551 5554 5558 5561 5564 5565 5568 5570 5571 5572 5570 5567 5568 5568 5568 5569 5570 5569 5569 5569 5569 5568 5567 5566 5565 5564 5563 5561 5560 5558 5556 5554 5552
5494 5500 5505 5511 5516 5521 5525 5529 5533 5536 5540 5543 5547 5550 5553 5556 5558 5560 5562 5563 5564 5564 5562 5563 5562 5562 5562 5561 5561 5561 5560 5560 5559 5559 5558 5556 5555 5553 5552 5550 5548 5546 5544
5483 5488 5494 5500 5505 5509 5513 5518 5522 5526 5529 5532 5536 5539 5543 5546 5548 5550 5552 5553 5555 5555 5554 5553 5554 5554 5553 5553 5553 5552 5552 5552 5551 5550 5550 5548 5547 5545 5543 5542 5540 5538 5536
5471 5476 5482 5488 5493 5497 5501 5506 5511 5514 5518 5521 5525 5528 5531 5535 5537 5540 5542 5543 5545 5547 5546 5544 5544 5544 5544 5544 5544 5544 5543 5543 5543 5542 5541 5540 5539 5537 5535 5533 5531 5529 5527
5458 5463 5469 5476 5482 5486 5490 5494 5499 5503 5507 5511 5515 5518 5520 5524 5526 5529 5532 5534 5535 5537 5538 5537 5536 5535 5535 5535 5534 5534 5534 5533 5533 5533 5532 5531 5530 5529 5527 5525 5523 5521 5519
5446 5452 5457 5463 5470 5474 5479 5483 5487 5491 5496 5500 5505 5508 5511 5514 5517 5519 5521 5524 5525 5526 5527 5528 5527 5526 5526 5526 5525 5525 5524 5524 5524 5524 5523 5522 5521 5520 5518 5517 5515 5513 5511
5434 5440 5445 5452 5457 5462 5467 5472 5476 5480 5485 5489 5494 5498 5501 5504 5508 5510 5512 5514 5515 5516 5517 5518 5518 5517 5517 5517 5517 5517 5516 5514 5514 5514 5513 5513 5512 5511 5509 5508 5506 5504 5502
5423 5428 5434 5440 5445 5450 5456 5461 5465 5469 5474 5478 5484 5488 5491 5494 5497 5500 5503 5505 5507 5508 5508 5509 5510 5510 5510 5510 5510 5509 5507 5505 5505 5506 5504 5503 5502 5502 5501 5500 5498 5495 5493
5411 5416 5422 5428 5433 5439 5444 5450 5454 5458 5463 5468 5473 5477 5481 5484 5486 5488 5492 5494 5497 5500 5502 5502 5502 5504 5504 5504 5503 5500 5499 5498 5498 5498 5495 5494 5493 5493 5492 5490 5488 5486 5483
5398 5404 5411 5416 5422 5428 5433 5438 5443 5447 5451 5457 5462 5467 5470 5473 5475 5478 5480 5483 5486 5489 5492 5493 5496 5497 5497 5496 5496 5495 5492 5488 5486 5486 5486 5484 5483 5482 5482 5480 5478 5475 5473
5386 5392 5399 5404 5410 5416 5421 5427 5431 5435 5440 5446 5452 5457 5460 5463 5466 5467 5469 5472 5475 5478 5480 5483 5485 5486 5487 5487 5486 5483 5480 5478 5476 5475 5475 5474 5473 5471 5471 5470 5468 5465 5463
5375 5381 5387 5393 5398 5404 5409 5415 5420 5425 5431 5437 5442 5447 5450 5453 5455 5457 5459 5462 5464 5467 5468 5470 5472 5474 5475 5475 5475 5475 5474 5471 5468 5465 5466 5464 5461 5458 5457 5459 5457 5454 5452